Showing default

MALLIGYONG-1, 58400

Orbit data source: Space-Track

MALLIGYONG-1, 58400 is a payload satellite owned by Choson (KP) in SSO that was launched on Tue, 21 Nov 2023 UTC via a CHEONLIMA-1 launch vehicle from the Yunsong, Dprk (YUN). Payloads include a variety of satellites, spacecraft, and rockets equipped with specific instruments for various scientific and technological missions. These include communications satellites like Starlink; space stations such as the ISS; scientific satellites like the Hubble; Earth observation satellites from companies like Planet Labs, Umbra, and HawkEye 360; GPS; miniature CubeSats for education and research; and military/defense satellites.

Loading next visibility...
MALLIGYONG-1 details
Identifier
58400, 2023-179A
Orbit
SSO
Last TLE update7 hours ago
Origin
Flag of KPChoson (KP / NKOR)
ManufacturerChoson
MissionOperational Defense Imaging
Bus & MotorTD SATELLITE, Unknown motor
Mass~200 kg wet, ~200 kg dry
Launch date (UTC)
2023-11-21 (1 year ago)
Launch vehicle
CHEONLIMA-1
Launch site
Yunsong, Dprk (YUN)
Object type
Payload
Rocket body
Debris
Shape & HBRBox, 1.2 m
Radar Cross Section1.280 m², Medium (>0.1 m² and < 1m²)

Expand to show TLE details & history

TLE from 7 hours ago
0 MALLIGYONG-1
1 58400U 23179A   25015.62705806  .00006361  00000-0  27205-3 0  9991
2 58400  97.3771 264.6838 0009521  55.8902 304.3237 15.23137917 64030
Epoch: 2025-01-15T15:02Z
Definitive object data (Epoch: 2025-01-15T15:02:57.816Z)
Latitude-0.00001°
Longitude-76.37379°
Altitude495.791 km
Speed7.619 km/s
True Right ascension17h 38m 44s
True Declination0° 00' 00"
Sunlit
Object was in daylight at TLE epoch
Visualization TLE readout
Latitude-51.32507°
Longitude94.66893°
Altitude522.886 km
Speed7.597 km/s
Apparent Right ascension08h 17m 58s
Apparent Declination-55° 22' 51"
Sunlit
Object is in daylight
Visualization observer readout
Local Sidereal Time23:04:11
Azimuth133.562° SE
Elevation-58.665°
Doppler factor1
Orbital elements
Apogee altitude499.885 km
Perigee altitude486.801 km
Semi-major axis6,871.48 km
Eccentricity0.0009521
Inclination97.3771°
RAAN264.6838°
Arg. of periapsis55.8902°
True anomaly304.23354°
Mean anomaly304.3237°
Eccentric anomaly304.27862°
Mean motion3.81038 °/min
BSTAR0.00027205
Orbital period94.48 mins
Loading maneuver chart data...
Loading historical data...
Loading historical data...
Loading historical data...
Loading historical data...
Loading historical data...
Loading historical data...
Loading historical data...
Other satellites on launch #179 in the year 2023 (2023-11-21 UTC)

MALLIGYONG-1 Visibility forecast

Observer location: undefined°, undefined

Span
Click to sort rows by Start time (UTC) header in descending order
Start Az.
Max El. time (UTC)
Max El. Az.
Max El.
End time (UTC)
End Az.
4 mins2025-01-16 05:49:11.577Z333.785° NNW2025-01-16 05:50:11.577Z305.396° NW29.882°2025-01-16 05:53:11.577Z225.148° WSW
5 mins2025-01-16 16:25:11.577Z158.157° S2025-01-16 16:27:11.577Z78.926° E43.966°2025-01-16 16:30:11.577Z352.6° N
|